Temp
3 3 3 3 3 2 2 2 2 2 2 2 2 2 2 2 2 2 2 2 2 2 2 2 2 2 2 2 1 1 1 1 1 1 1 1 1 0 0 0 -0 -0 -0 -0 0 0 0 0 1 1 1 1 1 1 1 1 1 2 2 2 2 2 2 3 3 3 3 3 3 3 3 3 3 3 3 3 2 2 3 3 3 3 3 3 3 3
3 2 2 2 2 2 1 2 2 2 2 2 2 2 1 2 2 2 2 2 2 2 2 2 2 2 1 1 1 1 1 1 1 1 0 0 0 0 -0 -0 -0 -0 -0 -0 -0 0 0 0 0 0 1 1 1 1 1 1 2 2 2 2 2 2 2 2 2 2 2 2 2 2 2 2 2 2 2 2 2 2 2 2 2 2 3 3 3 3
2 2 1 1 1 1 1 1 1 1 1 1 2 2 1 1 1 1 1 2 2 2 1 1 1 1 1 1 1 1 1 1 0 0 -0 -0 -0 -0 -0 -0 -0 -0 -0 -0 0 0 0 0 0 0 0 1 1 1 1 1 1 2 2 2 2 2 2 2 2 2 2 2 2 2 2 2 2 2 2 2 2 2 2 2 2 2 2 3 3 3
1 1 1 1 1 1 1 1 1 1 1 1 1 1 1 1 1 1 1 1 1 1 1 1 1 0 0 0 0 0 0 -0 -0 -1 -1 -1 -1 -1 -1 -0 -0 -0 -0 -0 0 0 0 0 0 0 0 1 1 1 1 1 1 1 2 2 2 2 2 2 2 2 2 2 2 2 2 2 2 2 2 2 2 2 2 2 2 2 2 2 2 3
1 1 1 1 1 1 1 1 0 0 1 0 0 1 1 1 1 0 0 0 0 0 -0 -0 -0 -0 -0 -0 -0 -0 -0 -1 -1 -1 -1 -1 -1 -1 -0 -0 -0 -0 -0 -0 0 0 0 0 0 0 0 1 1 1 1 1 1 1 2 2 2 2 2 2 2 2 2 2 1 1 1 1 2 2 2 2 2 2 2 2 2 2 2 2 2 2
1 1 1 1 1 1 1 0 0 0 0 0 0 0 0 0 -0 -0 -0 -0 -0 -1 -1 -1 -1 -1 -1 -1 -1 -1 -1 -1 -1 -1 -1 -1 -1 -0 -0 -0 -0 -0 0 0 0 0 0 0 0 0 0 1 1 1 1 1 1 1 1 1 1 1 1 1 1 1 1 1 1 1 1 1 1 1 1 1 1 1 1 1 2 2 2 2 2 2
1 1 1 1 0 0 0 0 0 0 0 0 0 0 -0 -0 -0 -1 -1 -1 -1 -1 -1 -1 -1 -1 -1 -1 -1 -1 -1 -1 -1 -1 -1 -1 -0 -0 -0 0 0 -0 -0 0 -0 -0 -0 -0 0 0 0 0 1 1 1 1 1 1 1 1 1 1 1 1 1 1 1 1 1 1 1 1 1 1 1 1 1 1 1 1 1 1 1 2 2 2
1 1 1 0 0 0 0 0 0 0 0 -0 -0 -0 -0 -0 -1 -1 -1 -1 -1 -1 -1 -1 -1 -1 -1 -1 -1 -1 -0 -0 -0 -0 -1 -1 -0 -0 -0 -0 -0 -0 -0 -0 -0 -0 -0 -0 -0 -0 -0 0 0 0 1 1 0 0 0 0 0 0 0 0 0 0 1 1 1 1 1 1 1 1 1 1 1 1 1 1 1 1 1 1 1 2
0 0 0 -0 -0 -0 0 0 -0 -0 -0 -0 -0 -0 -0 -0 -1 -1 -1 -1 -1 -1 -1 -1 -1 -1 -0 -0 -0 -0 -0 -0 -0 -1 -1 -1 -0 -0 -0 -0 -0 -0 -0 -0 -0 -0 -1 -1 -1 -0 -0 -0 -0 -0 -0 0 0 0 -0 -0 -0 -0 -0 0 0 0 0 0 0 0 0 0 0 0 0 0 1 1 1 1 1 1 1 1 1 1
-0 -0 -0 -0 -0 -0 -0 -0 -0 -0 -0 -0 -1 -1 -1 -0 -0 -0 -0 -0 -0 -0 -0 -0 -0 -0 -0 -0 -0 -0 -0 -0 -1 -1 -1 -1 -0 -0 -0 -0 -0 -0 -0 -0 -1 -1 -1 -1 -1 -1 -1 -1 -1 -1 -1 -1 -1 -1 -1 -1 -1 -1 -0 -0 -0 -0 -0 -0 -0 -0 -0 -0 0 0 0 0 0 0 1 1 1 1 1 1 1 1
-1 -0 -0 -0 -0 -0 -0 -0 -0 -0 -0 -0 -0 -0 -0 -0 -0 -0 -0 0 0 0 0 0 0 0 -0 -0 -0 -0 -0 -0 -1 -1 -1 -1 -0 -0 -0 -0 -0 -0 -0 -1 -1 -1 -1 -1 -1 -1 -1 -1 -1 -1 -1 -1 -1 -1 -1 -1 -1 -1 -1 -1 -1 -1 -1 -0 -0 -0 -0 -0 -0 -0 0 0 0 0 0 0 1 1 1 1 1 1
-1 -1 -1 -0 -0 -0 -0 -0 -0 -0 0 0 0 0 0 0 0 -0 -0 0 0 0 0 0 0 -0 -0 -0 -0 -0 -1 -1 -1 -1 -1 -1 -1 -0 -0 -0 -1 -1 -1 -1 -1 -1 -1 -1 -1 -2 -2 -2 -2 -2 -2 -2 -1 -1 -1 -1 -1 -1 -1 -1 -1 -0 -0 -0 -0 -0 -0 -0 -0 -0 -0 0 0 0 0 0 0 0 0 0 1 1
-1 -0 -0 -0 -0 -0 -0 0 0 0 0 0 0 0 0 0 0 -0 -0 0 0 0 -0 -0 -0 -0 -0 -0 -1 -1 -1 -1 -1 -1 -1 -1 -1 -1 -1 -1 -1 -1 -1 -1 -1 -1 -1 -1 -2 -2 -2 -2 -2 -2 -2 -2 -1 -1 -1 -1 -1 -1 -1 -1 -1 -1 -1 -0 -1 -1 -0 -0 -0 -0 -0 0 0 0 0 0 0 0 0 0 1 1
-0 -0 -0 0 0 0 0 0 -0 -0 -0 -0 -0 -0 -0 -0 -0 -0 -0 0 -0 -0 -0 -1 -1 -1 -1 -1 -1 -1 -1 -1 -1 -1 -1 -1 -1 -1 -1 -1 -1 -1 -1 -1 -1 -1 -1 -2 -2 -2 -2 -2 -2 -2 -2 -2 -1 -1 -1 -1 -1 -1 -1 -1 -1 -1 -1 -1 -1 -1 -0 -0 -0 -0 -0 0 0 0 0 0 0 0 0 0 1 1
-0 -0 -0 0 0 -0 -0 -0 -0 -0 -0 -0 -0 -0 -0 -0 -0 -0 -0 -0 -0 -0 -0 -1 -1 -1 -1 -1 -1 -1 -1 -1 -1 -1 -1 -1 -1 -1 -1 -1 -1 -1 -1 -1 -1 -1 -2 -2 -2 -2 -2 -2 -2 -2 -2 -2 -1 -1 -1 -1 -1 -1 -1 -1 -1 -1 -1 -1 -1 -1 -1 -0 -0 -0 -0 -0 0 0 0 0 0 0 0 0 0 1
-0 -0 -0 -0 -0 -0 -0 -0 -0 -0 -0 -0 -0 -0 -0 -0 -0 -0 -0 -1 -1 -1 -1 -1 -1 -1 -1 -1 -1 -1 -1 -1 -1 -2 -1 -1 -1 -2 -2 -2 -2 -2 -2 -2 -2 -2 -2 -2 -2 -2 -2 -2 -2 -2 -2 -2 -2 -2 -2 -2 -2 -2 -1 -1 -1 -1 -1 -1 -1 -1 -1 -0 -0 -0 -0 -0 0 0 0 0 0 0 0 0 0 0
-1 -1 -1 -1 -1 -1 -1 -1 -1 -1 -1 -1 -1 -1 -1 -1 -1 -1 -1 -1 -1 -1 -1 -1 -1 -1 -0 -1 -2 -2 -2 -2 -2 -2 -2 -2 -2 -2 -2 -2 -2 -2 -2 -2 -2 -2 -2 -3 -3 -3 -3 -2 -2 -2 -2 -2 -2 -2 -2 -2 -2 -2 -2 -1 -1 -1 -1 -1 -1 -1 -1 -1 -0 -0 -0 -0 -0 0 0 0 0 0 0 0 0 0
-1 -1 -1 -1 -1 -1 -1 -1 -1 -1 -1 -1 -1 -1 -1 -1 -1 -2 -2 -2 -2 -2 -2 -2 -2 -1 -1 -1 -1 -2 -2 -2 -2 -3 -3 -3 -3 -3 -3 -3 -3 -3 -3 -2 -3 -3 -3 -3 -3 -3 -3 -3 -3 -2 -2 -3 -3 -3 -2 -2 -2 -2 -2 -2 -1 -1 -1 -1 -1 -1 -1 -1 -1 -0 -0 -0 -0 -0 -0 -0 -0 -0 -0 -0 -0 -0
-1 -1 -1 -1 -1 -1 -1 -1 -1 -1 -1 -2 -2 -2 -2 -2 -2 -2 -2 -2 -2 -2 -2 -2 -2 -2 -2 -2 -2 -3 -3 -3 -3 -3 -3 -3 -3 -3 -3 -3 -3 -3 -3 -3 -3 -3 -3 -3 -3 -3 -3 -3 -3 -3 -3 -3 -3 -3 -3 -3 -2 -2 -2 -2 -2 -2 -1 -1 -1 -1 -1 -1 -1 -1 -1 -0 -0 -0 -0 -0 -0 -0 -0 -0 -0 -0
-1 -1 -1 -1 -1 -1 -2 -2 -2 -2 -2 -2 -2 -2 -2 -2 -2 -2 -2 -2 -2 -3 -3 -3 -3 -3 -3 -2 -3 -3 -3 -3 -3 -4 -4 -4 -4 -4 -4 -4 -4 -4 -3 -3 -3 -3 -3 -3 -3 -3 -3 -3 -3 -3 -2 -2 -2 -2 -3 -3 -2 -2 -2 -2 -2 -2 -2 -1 -1 -1 -1 -1 -1 -1 -1 -1 -1 -1 -1 -1 -1 -0 -0 -0 -0 -1
-1 -1 -1 -1 -2 -2 -2 -2 -2 -2 -2 -2 -2 -2 -2 -2 -2 -2 -2 -2 -3 -3 -3 -3 -3 -3 -3 -3 -3 -3 -4 -4 -4 -4 -4 -4 -4 -4 -4 -4 -4 -4 -4 -4 -3 -3 -3 -3 -3 -3 -3 -3 -3 -3 -2 -2 -2 -2 -3 -3 -3 -2 -2 -2 -2 -2 -2 -2 -1 -1 -1 -1 -1 -1 -1 -1 -1 -1 -1 -1 -1 -1 -1 -1 -1 -1
-2 -2 -2 -2 -2 -2 -2 -2 -2 -2 -2 -2 -2 -2 -2 -3 -3 -3 -3 -3 -3 -3 -3 -3 -3 -3 -3 -4 -4 -4 -4 -4 -4 -4 -4 -4 -4 -4 -4 -4 -4 -4 -4 -4 -4 -4 -4 -4 -3 -3 -3 -3 -3 -3 -2 -2 -2 -2 -3 -3 -3 -2 -2 -2 -2 -2 -2 -2 -2 -1 -1 -1 -1 -1 -1 -1 -1 -1 -1 -1 -1 -1 -1 -1 -1 -1
-2 -2 -2 -2 -2 -2 -2 -2 -2 -3 -3 -3 -3 -3 -3 -3 -3 -3 -3 -3 -3 -3 -3 -3 -4 -4 -4 -4 -4 -4 -4 -4 -5 -5 -5 -5 -4 -4 -4 -5 -5 -5 -5 -4 -4 -4 -4 -4 -3 -3 -3 -3 -3 -3 -2 -2 -3 -3 -3 -3 -3 -3 -2 -2 -2 -2 -2 -2 -2 -1 -1 -1 -1 -1 -1 -1 -1 -1 -1 -1 -1 -1 -1 -1 -1 -1
-2 -2 -2 -3 -3 -3 -3 -3 -3 -3 -3 -3 -3 -3 -3 -3 -3 -3 -3 -3 -3 -3 -4 -4 -4 -4 -4 -4 -4 -4 -4 -5 -5 -5 -5 -5 -5 -5 -5 -5 -5 -5 -5 -4 -4 -5 -4 -4 -3 -3 -3 -3 -3 -3 -3 -3 -3 -3 -3 -3 -3 -3 -2 -2 -2 -2 -2 -2 -2 -2 -2 -2 -2 -2 -2 -2 -2 -2 -2 -2 -2 -2 -2 -2 -2 -2
-3 -3 -3 -3 -3 -3 -3 -3 -3 -3 -3 -3 -3 -3 -3 -3 -3 -3 -3 -3 -3 -3 -4 -4 -4 -4 -4 -4 -4 -4 -5 -5 -5 -5 -5 -5 -5 -5 -5 -5 -5 -5 -5 -5 -5 -5 -5 -4 -3 -3 -3 -3 -4 -4 -4 -4 -4 -4 -3 -3 -3 -3 -3 -2 -2 -2 -2 -2 -2 -2 -2 -2 -2 -2 -2 -2 -2 -2 -2 -2 -2 -2 -2 -2 -2 -2
-3 -3 -3 -3 -3 -3 -4 -4 -4 -4 -4 -4 -4 -4 -3 -3 -3 -3 -3 -3 -3 -4 -4 -4 -4 -4 -4 -4 -5 -5 -5 -5 -5 -5 -5 -5 -6 -6 -6 -6 -6 -5 -5 -5 -5 -5 -5 -4 -3 -3 -3 -4 -4 -4 -4 -4 -4 -4 -4 -3 -3 -3 -3 -3 -3 -3 -3 -3 -3 -3 -3 -3 -3 -2 -2 -2 -2 -2 -2 -2 -2 -2 -2 -2 -2 -2
-3 -4 -4 -4 -4 -4 -4 -4 -4 -4 -4 -4 -4 -4 -4 -4 -4 -4 -4 -4 -4 -4 -4 -4 -4 -4 -4 -5 -5 -5 -5 -5 -5 -5 -5 -6 -6 -6 -6 -6 -5 -5 -5 -5 -6 -6 -5 -4 -4 -3 -4 -4 -4 -4 -4 -4 -4 -4 -4 -4 -4 -4 -4 -4 -3 -3 -3 -3 -3 -3 -3 -3 -3 -3 -3 -3 -2 -2 -2 -2 -2 -2 -2 -2 -2 -2
-4 -4 -4 -4 -4 -4 -4 -4 -4 -4 -4 -4 -4 -4 -4 -4 -4 -4 -4 -4 -4 -4 -4 -4 -4 -4 -4 -5 -5 -5 -5 -5 -5 -5 -5 -6 -6 -6 -5 -5 -5 -5 -6 -6 -6 -6 -5 -5 -4 -4 -4 -4 -4 -4 -4 -4 -4 -4 -4 -4 -4 -4 -4 -3 -3 -3 -3 -3 -3 -3 -3 -3 -3 -3 -3 -3 -3 -3 -3 -3 -3 -2 -2 -2 -2 -3
-4 -4 -4 -4 -4 -4 -4 -4 -4 -4 -4 -4 -4 -4 -4 -4 -4 -4 -4 -4 -4 -4 -4 -4 -4 -4 -4 -4 -5 -5 -5 -5 -5 -5 -5 -5 -5 -5 -5 -5 -5 -6 -6 -6 -6 -6 -5 -5 -5 -4 -4 -4 -4 -4 -4 -4 -4 -4 -4 -4 -3 -3 -3 -3 -3 -3 -3 -3 -3 -3 -3 -3 -3 -3 -3 -3 -3 -3 -3 -3 -3 -3 -3 -3 -3 -3
-4 -4 -4 -4 -4 -5 -5 -5 -5 -5 -5 -5 -5 -4 -4 -4 -4 -4 -5 -5 -5 -5 -5 -5 -5 -5 -4 -5 -5 -5 -5 -5 -5 -5 -5 -5 -5 -5 -5 -5 -6 -6 -6 -6 -6 -6 -6 -5 -5 -5 -4 -4 -4 -4 -4 -4 -4 -3 -3 -3 -3 -3 -3 -3 -3 -3 -3 -3 -3 -3 -4 -4 -4 -4 -4 -4 -4 -4 -3 -3 -3 -3 -3 -3 -3 -3
-4 -4 -5 -5 -5 -5 -5 -5 -5 -5 -5 -5 -5 -5 -5 -5 -5 -5 -5 -5 -5 -5 -5 -5 -5 -5 -5 -5 -5 -5 -5 -5 -5 -5 -6 -6 -5 -5 -5 -6 -6 -6 -6 -6 -6 -6 -6 -6 -6 -5 -5 -5 -4 -4 -4 -4 -4 -3 -3 -3 -3 -3 -3 -3 -3 -3 -3 -3 -3 -4 -4 -4 -4 -4 -4 -4 -4 -4 -4 -4 -4 -4 -4 -4 -4 -4
-4 -5 -5 -5 -5 -5 -5 -5 -5 -5 -5 -5 -5 -5 -5 -5 -5 -5 -5 -5 -5 -5 -5 -5 -5 -5 -5 -5 -5 -5 -5 -5 -5 -5 -5 -6 -6 -5 -5 -5 -5 -5 -6 -6 -6 -6 -6 -7 -6 -6 -6 -6 -6 -6 -5 -5 -5 -4 -4 -4 -4 -4 -3 -4 -4 -4 -4 -4 -4 -4 -4 -4 -4 -4 -4 -4 -4 -4 -4 -4 -4 -4 -4 -4 -4 -4
-5 -5 -5 -5 -5 -5 -5 -5 -5 -5 -5 -5 -5 -5 -5 -5 -5 -5 -5 -5 -5 -5 -5 -5 -5 -5 -5 -5 -5 -5 -5 -5 -5 -5 -5 -5 -5 -5 -5 -6 -6 -6 -6 -6 -6 -6 -6 -6 -6 -6 -6 -6 -6 -6 -6 -6 -5 -5 -5 -5 -5 -4 -4 -4 -4 -4 -4 -4 -4 -4 -4 -4 -4 -4 -4 -4 -4 -4 -4 -4 -4 -4 -4 -4 -4 -4
-5 -5 -5 -5 -5 -5 -5 -5 -5 -5 -5 -5 -5 -5 -5 -5 -5 -5 -5 -5 -5 -5 -5 -5 -5 -5 -5 -5 -5 -5 -5 -5 -5 -5 -5 -6 -6 -6 -6 -6 -6 -6 -6 -6 -6 -6 -6 -6 -6 -6 -6 -6 -6 -6 -6 -6 -6 -6 -6 -5 -5 -5 -5 -5 -5 -5 -5 -4 -4 -4 -4 -4 -4 -4 -4 -4 -4 -4 -4 -4 -4 -4 -4 -4 -4 -4
-5 -5 -5 -5 -5 -5 -5 -5 -5 -5 -5 -6 -6 -6 -6 -6 -5 -5 -5 -5 -5 -5 -5 -5 -5 -5 -5 -6 -6 -6 -6 -6 -6 -6 -6 -6 -6 -6 -6 -6 -6 -6 -6 -6 -6 -6 -6 -6 -6 -6 -6 -6 -6 -6 -6 -6 -6 -6 -6 -6 -6 -5 -5 -5 -5 -5 -5 -4 -4 -4 -4 -4 -4 -4 -4 -4 -4 -4 -4 -4 -4 -4 -4 -4 -4 -4
-5 -5 -5 -5 -5 -5 -5 -5 -5 -6 -6 -6 -6 -6 -6 -6 -6 -6 -6 -6 -5 -5 -5 -6 -6 -6 -6 -6 -6 -6 -6 -6 -6 -6 -6 -6 -6 -6 -6 -6 -6 -6 -6 -6 -6 -6 -6 -6 -6 -6 -6 -6 -6 -6 -6 -6 -6 -6 -6 -6 -6 -6 -6 -5 -5 -5 -5 -5 -4 -4 -4 -4 -4 -4 -4 -4 -4 -4 -4 -4 -5 -5 -5 -4 -4 -4
-6 -6 -6 -6 -6 -6 -6 -6 -6 -6 -6 -6 -6 -6 -6 -6 -6 -6 -6 -6 -6 -6 -6 -6 -6 -6 -6 -6 -6 -6 -6 -6 -6 -6 -6 -6 -6 -7 -7 -7 -7 -7 -7 -7 -7 -7 -6 -6 -6 -6 -6 -6 -6 -6 -6 -6 -6 -6 -6 -6 -6 -6 -6 -6 -5 -5 -5 -5 -5 -5 -5 -5 -5 -5 -5 -5 -5 -5 -5 -5 -5 -5 -5 -5 -5 -4
-6 -6 -6 -6 -6 -6 -6 -6 -6 -6 -6 -6 -6 -6 -6 -6 -6 -6 -6 -6 -6 -6 -6 -6 -6 -6 -6 -6 -6 -7 -7 -7 -7 -7 -7 -7 -7 -7 -7 -7 -7 -7 -7 -7 -7 -7 -7 -7 -6 -6 -6 -6 -6 -6 -6 -6 -6 -6 -7 -7 -7 -7 -6 -6 -6 -6 -6 -6 -5 -5 -5 -5 -5 -5 -5 -5 -5 -5 -5 -5 -5 -5 -5 -5 -5 -5
-6 -6 -6 -7 -7 -7 -7 -7 -7 -7 -7 -7 -7 -6 -6 -6 -6 -6 -6 -6 -6 -6 -6 -6 -6 -6 -6 -6 -6 -6 -7 -7 -7 -7 -7 -7 -7 -7 -7 -7 -7 -7 -7 -7 -7 -7 -7 -7 -7 -7 -6 -6 -6 -6 -6 -7 -7 -7 -7 -7 -6 -6 -6 -6 -6 -6 -6 -6 -6 -6 -6 -5 -5 -5 -5 -5 -5 -5 -5 -5 -5 -5 -5 -5 -5 -5
-7 -7 -7 -7 -7 -7 -7 -7 -7 -7 -7 -7 -7 -7 -7 -7 -7 -7 -7 -7 -7 -7 -7 -7 -7 -7 -7 -7 -7 -7 -7 -7 -7 -7 -7 -7 -7 -7 -7 -7 -7 -7 -7 -7 -7 -7 -7 -7 -7 -7 -7 -7 -7 -7 -7 -7 -7 -7 -6 -6 -6 -6 -6 -6 -6 -6 -6 -6 -6 -6 -6 -6 -6 -6 -6 -6 -6 -6 -6 -6 -6 -6 -5 -5 -5 -5
-7 -7 -7 -7 -7 -7 -7 -7 -7 -7 -7 -7 -7 -7 -7 -8 -8 -8 -8 -8 -8 -8 -8 -8 -8 -8 -8 -7 -7 -7 -7 -7 -7 -7 -7 -7 -7 -7 -7 -7 -7 -7 -7 -7 -7 -7 -7 -7 -7 -7 -7 -7 -7 -7 -7 -7 -7 -6 -6 -6 -6 -6 -6 -6 -6 -6 -6 -6 -6 -6 -6 -6 -6 -6 -6 -6 -6 -6 -6 -6 -6 -6 -6 -6 -6 -6
-7 -7 -7 -7 -7 -7 -7 -7 -8 -8 -8 -8 -8 -8 -8 -8 -8 -8 -8 -8 -8 -7 -8 -8 -8 -8 -8 -8 -8 -8 -8 -8 -8 -8 -8 -8 -7 -7 -7 -7 -7 -7 -7 -7 -7 -7 -7 -7 -7 -7 -7 -7 -7 -7 -7 -7 -7 -7 -6 -6 -6 -6 -6 -6 -6 -6 -6 -6 -6 -6 -6 -6 -6 -6 -6 -6 -6 -6 -6 -6 -6 -6 -6 -6 -6 -6
-7 -7 -7 -7 -7 -8 -8 -8 -8 -8 -8 -8 -8 -8 -8 -8 -8 -8 -8 -8 -7 -7 -7 -7 -7 -7 -7 -7 -7 -7 -8 -7 -7 -7 -7 -7 -7 -7 -7 -7 -7 -7 -7 -7 -7 -7 -7 -7 -7 -7 -7 -7 -7 -7 -7 -7 -7 -7 -6 -6 -6 -6 -6 -6 -6 -6 -6 -6 -6 -6 -6 -6 -6 -6 -6 -6 -6 -6 -6 -6 -6 -6 -6 -6 -6 -6
-7 -7 -7 -7 -8 -8 -8 -8 -7 -8 -8 -8 -8 -8 -8 -8 -8 -8 -7 -7 -7 -7 -7 -7 -7 -7 -8 -8 -7 -7 -7 -7 -7 -7 -7 -7 -7 -7 -7 -7 -7 -7 -7 -7 -7 -7 -7 -7 -7 -7 -7 -7 -7 -7 -7 -7 -7 -7 -7 -6 -6 -6 -6 -6 -6 -6 -6 -6 -6 -6 -6 -6 -6 -6 -6 -6 -6 -6 -6 -6 -6 -6 -6 -6 -6 -6
-7 -7 -7 -8 -8 -8 -8 -8 -7 -8 -8 -8 -8 -8 -8 -7 -7 -7 -7 -7 -7 -7 -7 -7 -7 -7 -7 -7 -7 -7 -7 -7 -7 -7 -7 -7 -7 -7 -7 -7 -7 -7 -7 -7 -7 -7 -7 -7 -7 -7 -7 -7 -7 -7 -7 -7 -7 -7 -6 -6 -6 -6 -6 -6 -6 -6 -6 -6 -6 -6 -6 -6 -6 -6 -6 -6 -6 -6 -6 -6 -6 -6 -6 -6 -6 -5
-8 -8 -8 -8 -8 -8 -8 -8 -8 -8 -8 -8 -8 -7 -7 -7 -7 -7 -7 -7 -7 -7 -7 -7 -7 -7 -7 -7 -7 -7 -7 -7 -7 -7 -7 -7 -7 -7 -7 -6 -6 -6 -6 -6 -6 -6 -7 -7 -7 -7 -7 -7 -7 -7 -7 -7 -7 -7 -6 -6 -6 -6 -6 -6 -6 -6 -6 -6 -6 -6 -6 -6 -6 -6 -6 -6 -6 -6 -6 -6 -6 -6 -5 -5 -5 -5
-8 -8 -8 -8 -8 -8 -8 -8 -8 -8 -8 -7 -7 -7 -7 -7 -7 -7 -7 -7 -7 -7 -7 -7 -7 -7 -7 -7 -7 -7 -7 -7 -7 -7 -6 -6 -6 -6 -6 -6 -6 -6 -6 -6 -6 -6 -6 -6 -7 -7 -7 -7 -7 -7 -7 -7 -7 -6 -6 -6 -6 -6 -6 -6 -6 -6 -6 -6 -6 -6 -6 -6 -6 -6 -6 -6 -6 -5 -5 -5 -5 -5 -5 -5 -5 -5
-8 -8 -8 -8 -8 -8 -8 -8 -8 -8 -8 -8 -7 -7 -7 -7 -7 -7 -7 -7 -7 -7 -7 -7 -7 -7 -7 -7 -7 -7 -7 -7 -7 -7 -6 -6 -6 -6 -6 -6 -6 -6 -6 -6 -6 -6 -6 -6 -6 -6 -7 -7 -7 -7 -7 -7 -7 -6 -6 -6 -6 -6 -6 -6 -6 -6 -6 -6 -6 -6 -6 -6 -6 -6 -6 -6 -5 -5 -5 -5 -5 -5 -5 -5 -5 -5
-9 -9 -9 -9 -9 -9 -8 -8 -8 -8 -8 -8 -8 -8 -8 -7 -8 -8 -8 -7 -7 -7 -8 -8 -8 -7 -7 -7 -7 -7 -7 -7 -7 -7 -6 -6 -6 -6 -6 -6 -6 -6 -6 -6 -6 -6 -6 -6 -6 -6 -6 -7 -7 -7 -7 -7 -7 -7 -6 -6 -6 -6 -6 -6 -6 -6 -6 -6 -6 -6 -6 -6 -6 -6 -6 -6 -5 -5 -5 -5 -5 -5 -5 -5 -5 -5
-9 -9 -9 -9 -9 -8 -8 -8 -8 -8 -8 -8 -8 -8 -8 -8 -8 -8 -8 -8 -8 -8 -8 -8 -8 -7 -7 -7 -7 -7 -7 -7 -7 -7 -7 -6 -6 -6 -6 -6 -6 -6 -6 -6 -6 -6 -6 -6 -6 -6 -6 -6 -6 -6 -7 -7 -7 -7 -6 -6 -6 -6 -6 -6 -6 -6 -6 -6 -5 -5 -5 -5 -6 -6 -6 -6 -6 -5 -5 -5 -5 -5 -5 -5 -5 -5
-9 -9 -9 -9 -9 -8 -8 -8 -8 -8 -8 -8 -8 -8 -8 -8 -8 -8 -8 -8 -8 -8 -8 -8 -8 -7 -7 -7 -7 -7 -7 -7 -7 -7 -7 -7 -7 -7 -7 -7 -7 -7 -7 -7 -6 -6 -6 -6 -6 -5 -5 -5 -6 -6 -6 -6 -6 -6 -6 -6 -6 -6 -6 -6 -6 -5 -5 -5 -5 -5 -5 -5 -6 -6 -6 -6 -6 -5 -5 -5 -5 -5 -5 -5 -5 -5
Height
815 814 814 814 814 814 815 815 815 816 816 816 816 816 816 816 817 817 818 818 818 819 819 820 820 821 821 821 821 821 822 822 823 823 823 824 824 825 825 825 824 824 824 825 825 826 826 826 827 827 826 826 826 826 826 826 826 826 826 826 826 826 826 826 826 826 826 826 826 826 826 826 826 827 827 827 827 827 827 828 828 828 829 829 829 829
814 814 814 814 814 815 815 815 815 816 816 817 816 816 816 816 817 817 818 818 818 819 819 819 820 820 820 820 821 821 821 821 821 821 822 822 823 823 823 823 823 823 823 823 824 825 826 826 826 826 826 826 825 825 825 825 825 825 825 825 825 825 825 825 825 825 825 825 825 825 825 825 825 826 826 826 826 826 827 827 827 827 827 828 828 828
814 814 815 815 815 815 815 815 815 816 816 817 817 816 816 816 817 817 817 818 818 818 819 819 819 819 819 819 819 819 819 820 820 820 821 821 821 822 822 822 822 822 822 822 823 824 825 825 825 825 825 825 824 824 824 824 824 824 824 824 824 824 824 824 824 824 824 824 824 824 824 824 824 825 825 825 826 826 826 826 826 826 827 827 827 827
815 815 815 815 815 815 815 815 815 816 816 816 817 817 817 816 817 817 817 817 817 818 818 818 818 819 819 818 818 818 818 819 819 819 820 820 821 821 821 821 821 821 821 822 823 824 825 825 825 824 824 823 823 823 823 823 823 823 823 823 823 823 823 823 823 823 823 823 823 823 823 823 824 824 824 824 825 825 825 825 826 826 826 826 826 826
815 815 815 815 815 815 816 816 816 816 816 816 816 817 817 817 817 817 817 817 817 817 818 818 818 818 818 818 818 818 818 818 819 819 819 820 820 820 820 820 820 821 822 823 823 824 824 824 823 823 822 822 822 822 822 822 822 822 822 822 822 822 822 822 822 822 822 822 822 822 822 822 823 823 823 823 824 824 824 824 824 824 824 825 825 825
815 815 815 815 816 816 816 816 816 816 816 816 816 816 816 816 816 816 817 817 817 817 817 817 817 817 817 817 818 818 818 818 818 819 819 819 819 820 820 820 821 821 822 823 823 823 823 822 822 821 821 821 821 821 821 821 821 821 821 821 821 821 821 821 821 821 821 821 821 821 821 821 822 822 822 822 822 822 823 823 823 823 823 823 823 824
815 816 816 816 816 816 816 816 816 816 816 816 816 816 816 816 816 816 816 817 817 817 817 817 817 817 817 817 818 818 818 818 818 818 818 819 819 819 820 820 821 821 821 821 822 821 821 821 820 820 820 820 820 821 821 821 821 821 820 820 820 819 819 819 819 819 819 820 820 820 820 821 821 821 821 821 821 822 822 822 822 822 822 822 822 822
816 816 816 816 816 816 816 816 816 816 816 816 816 816 816 816 816 816 816 816 816 817 817 817 817 817 817 817 817 817 817 817 817 817 817 818 818 818 819 819 819 820 820 820 820 820 820 819 819 819 819 819 819 819 820 820 819 819 819 819 818 818 818 818 818 818 819 819 819 819 819 820 820 820 820 821 821 821 821 821 821 821 821 821 821 821
816 816 816 816 816 816 816 816 816 816 816 816 816 816 816 816 816 816 816 816 816 816 817 817 817 817 817 817 817 817 817 817 817 817 817 817 817 817 818 818 818 819 819 819 819 819 818 818 818 818 818 818 818 818 818 818 818 818 818 817 817 817 817 817 817 817 817 818 818 818 818 818 819 819 819 819 819 819 820 820 820 820 820 820 821 821
816 816 816 816 816 816 816 816 816 816 816 816 816 816 816 816 816 816 816 816 816 816 816 816 816 817 817 816 816 816 816 816 816 816 816 816 816 817 817 817 817 817 817 817 817 817 817 817 817 817 817 817 817 817 817 817 816 816 816 816 816 816 816 816 816 816 816 816 816 817 817 817 817 817 818 818 818 818 818 818 818 819 819 819 819 820
817 817 816 816 816 816 816 816 816 816 816 816 816 816 816 816 816 816 816 816 816 816 816 816 816 816 816 816 816 816 816 816 816 816 816 816 816 816 816 816 816 816 816 816 816 816 816 816 816 816 816 816 816 816 815 815 815 815 815 815 815 815 815 815 815 815 815 815 815 816 816 816 816 816 816 816 816 817 817 817 817 817 818 818 818 818
817 817 817 817 817 817 817 817 817 817 817 816 816 816 816 816 816 816 816 816 816 816 816 816 816 816 815 815 815 815 815 816 816 816 816 816 816 816 816 816 816 816 816 816 816 815 815 815 815 814 814 814 814 814 813 813 813 813 813 813 813 814 814 814 814 814 814 814 814 814 814 814 815 815 815 815 815 816 816 816 816 816 816 816 817 817
817 817 817 817 817 817 817 817 817 817 817 817 816 816 816 816 816 816 816 816 816 816 816 815 815 815 815 815 815 815 815 815 815 815 815 815 815 815 815 815 815 815 815 814 814 814 814 814 813 813 812 812 812 812 812 812 812 812 812 812 812 812 812 812 812 812 812 812 812 812 813 813 813 813 814 814 814 814 814 815 815 815 815 816 816 816
817 817 817 817 817 817 817 817 817 817 817 817 817 816 816 816 816 816 816 816 815 815 815 815 815 815 815 815 815 815 815 815 815 815 815 815 814 814 814 814 814 813 813 813 813 812 812 812 811 811 811 811 810 810 810 810 810 811 811 811 811 811 811 811 811 811 811 811 811 811 811 812 812 812 812 813 813 813 813 813 814 814 814 814 814 814
817 817 817 817 817 817 817 817 817 817 817 817 817 816 816 816 816 816 816 815 815 815 815 815 815 815 815 815 815 815 815 815 814 814 814 814 814 814 813 813 812 812 812 811 811 811 810 810 809 809 809 809 809 809 809 809 809 809 809 809 809 809 809 809 809 809 810 810 810 810 810 811 811 811 811 811 811 812 812 812 812 812 813 813 813 813
817 817 817 817 817 817 817 817 817 817 817 817 817 816 816 816 816 816 816 816 816 815 815 815 815 815 815 815 815 815 815 814 814 814 814 813 813 813 813 812 811 811 811 810 809 809 808 808 808 807 807 807 807 807 808 808 808 808 808 808 808 808 808 808 808 808 808 809 809 809 809 809 810 810 810 810 810 811 811 811 811 811 811 811 811 811
817 817 817 817 817 818 817 817 817 817 817 817 817 817 817 816 816 816 816 816 816 816 816 816 816 815 814 814 814 814 814 814 814 813 813 812 812 812 812 811 810 809 809 808 808 807 807 806 806 806 806 806 806 806 806 806 806 806 806 806 806 807 807 807 807 807 807 807 808 808 808 808 808 808 809 809 809 809 809 810 810 810 810 810 810 810
818 818 818 818 818 818 818 818 818 818 817 817 817 817 817 817 817 817 816 816 816 816 816 816 816 816 815 814 814 814 814 814 813 812 812 811 811 811 810 810 809 808 807 807 806 806 806 806 805 805 805 805 805 805 805 805 805 805 805 805 805 805 806 806 806 806 806 806 806 806 807 807 807 807 807 807 808 808 808 808 808 808 808 808 808 808
818 818 818 818 818 818 818 818 818 818 818 817 817 817 817 817 817 817 816 816 816 816 816 816 816 815 815 815 814 814 814 813 812 811 811 810 809 809 809 808 807 806 806 806 806 805 805 805 805 804 804 804 804 804 804 804 804 804 804 804 804 804 804 804 804 805 805 805 805 805 806 806 806 806 806 806 806 806 806 806 806 806 806 806 806 806
818 818 818 818 818 818 818 818 818 818 817 817 817 817 817 817 817 816 816 816 816 816 816 815 815 815 815 814 814 813 813 812 812 811 810 808 807 807 807 807 806 805 805 805 805 804 804 804 804 803 803 803 803 803 803 802 802 802 802 802 802 802 803 803 803 803 804 804 804 804 804 804 804 805 805 805 805 805 805 805 805 805 805 805 805 805
818 818 818 818 818 818 818 818 818 817 817 817 817 817 817 816 816 816 816 816 816 815 815 815 815 814 814 814 813 813 812 812 811 810 809 807 806 806 806 806 805 804 804 803 803 803 803 803 802 802 802 802 802 801 801 801 801 801 801 801 801 801 801 801 802 802 802 802 802 803 803 803 803 803 803 803 803 803 803 803 803 803 803 803 803 803
817 817 817 817 818 818 818 818 817 817 817 817 817 816 816 816 816 816 816 816 815 815 815 814 814 813 813 813 812 812 811 811 810 809 808 806 805 805 805 805 804 803 803 802 802 802 802 801 801 801 801 801 800 800 800 799 799 799 799 799 800 800 800 800 801 801 801 801 801 801 801 801 802 802 802 802 802 802 802 802 801 801 801 801 801 801
817 817 817 817 817 817 817 817 817 817 817 817 816 816 816 816 816 816 815 815 815 814 814 813 813 813 812 812 811 811 811 810 810 809 808 806 805 804 804 804 803 803 802 801 801 801 801 801 800 800 800 799 799 798 798 798 798 798 798 798 798 799 799 799 800 800 800 800 800 800 800 800 800 800 800 800 800 800 800 800 800 800 799 799 799 799
817 817 817 817 817 817 817 817 817 817 816 816 816 816 816 816 815 815 815 814 814 814 813 813 812 812 811 811 811 811 810 810 809 809 808 806 805 804 804 804 803 802 801 801 801 800 800 799 799 799 798 798 797 797 796 796 796 796 797 797 797 798 798 799 799 799 799 799 799 799 799 799 799 799 799 798 798 798 798 798 798 798 797 797 797 797
817 817 817 817 817 817 817 817 817 816 816 816 816 816 815 815 814 814 814 813 813 813 812 812 811 811 810 810 810 810 809 809 809 808 807 806 805 804 804 804 803 802 801 801 800 800 799 798 798 797 797 796 796 796 795 795 796 796 796 797 797 797 798 798 798 798 798 798 797 797 797 797 797 797 797 797 796 796 796 796 796 796 796 796 795 795
816 816 816 816 817 816 816 816 816 816 816 816 815 815 814 814 813 813 813 812 812 812 811 811 811 810 810 810 809 809 809 808 808 808 807 806 805 804 804 803 803 802 801 800 799 799 798 797 796 796 796 796 795 795 795 795 795 795 796 796 796 796 796 796 796 796 796 796 796 796 796 795 795 795 795 795 795 795 795 795 794 794 794 794 793 793
816 816 816 816 816 816 816 816 815 815 815 815 815 814 814 813 812 812 811 811 811 811 811 810 810 809 809 809 809 808 808 808 807 807 806 806 805 804 803 803 803 802 801 799 799 798 797 796 795 795 795 795 794 794 794 794 794 794 795 795 795 795 795 795 794 794 794 794 794 794 794 794 794 793 793 793 793 793 793 793 793 792 792 792 791 791
816 816 816 815 815 815 815 815 815 814 814 814 814 813 813 812 811 811 810 810 810 810 810 809 809 808 808 808 808 807 807 807 807 806 806 806 805 804 803 803 803 802 801 799 797 796 796 796 795 794 794 794 794 794 794 794 794 794 793 793 793 793 793 793 793 793 793 792 792 792 792 792 792 792 792 792 792 791 791 791 791 791 791 790 790 789
815 815 815 814 814 814 814 813 813 813 813 812 812 812 811 811 810 809 808 809 809 809 808 808 808 808 807 807 807 807 806 806 806 806 805 805 804 804 803 803 802 802 801 799 797 795 795 795 794 794 793 793 793 793 793 793 793 793 793 792 792 792 792 792 791 791 791 791 791 791 791 791 791 790 790 790 790 790 790 790 790 789 789 788 788 787
814 814 814 813 813 813 812 812 812 811 811 811 810 810 809 809 808 808 807 808 808 807 807 807 807 807 807 806 806 806 806 805 805 805 805 805 804 803 803 803 802 801 801 800 797 795 794 793 793 793 793 793 793 793 792 792 792 792 792 791 791 791 791 790 790 790 790 789 789 789 789 789 789 789 788 788 788 788 788 788 788 787 787 786 786 786
813 813 812 812 812 811 811 811 811 810 810 809 809 808 808 807 807 806 806 806 806 806 806 806 806 806 806 806 806 806 805 804 804 804 804 804 803 803 802 802 802 801 801 801 800 797 795 793 792 792 792 792 792 792 792 791 791 791 790 790 789 789 789 789 788 788 788 788 787 787 787 787 787 786 786 786 786 786 786 786 786 786 785 785 784 784
812 812 811 811 811 811 810 810 809 809 808 808 807 807 806 806 806 805 805 805 805 805 805 805 805 805 805 806 806 805 804 804 804 804 804 803 803 802 802 801 801 801 801 801 801 800 798 795 792 791 792 791 791 791 790 790 789 789 788 788 787 787 787 787 787 786 786 786 786 785 785 785 785 784 784 784 784 784 784 784 784 784 784 783 783 782
811 811 811 810 810 809 809 808 808 807 807 806 806 806 805 805 805 805 805 804 804 804 804 804 804 804 804 804 804 804 804 804 804 804 803 803 802 801 801 801 801 801 800 800 800 800 799 796 794 791 791 790 790 789 789 788 788 787 787 786 786 786 786 786 785 785 784 784 784 783 783 783 782 782 782 782 782 782 782 782 782 782 782 782 781 781
810 809 809 809 808 808 807 807 806 806 806 805 805 805 804 804 804 804 804 804 804 804 803 803 803 803 803 803 803 803 803 803 803 804 803 802 801 801 800 800 800 800 800 799 799 798 797 796 794 792 790 789 788 788 788 787 787 786 786 786 785 785 784 784 784 783 783 782 782 781 781 781 781 781 781 780 780 780 780 780 780 781 781 781 780 780
808 808 807 807 807 806 806 805 805 805 804 804 804 804 804 804 803 803 803 803 803 803 803 803 803 803 803 803 802 802 802 802 802 802 802 801 801 800 800 800 800 799 799 798 798 797 796 795 794 793 791 789 787 787 787 786 786 786 785 785 784 784 783 783 782 782 781 781 780 780 780 780 779 779 779 779 779 778 778 778 778 779 779 779 779 779
806 806 806 806 805 805 804 804 804 803 803 803 803 803 803 803 803 803 803 802 802 802 802 802 802 802 802 802 801 801 801 801 801 801 801 801 800 800 799 799 799 799 798 798 797 796 796 794 793 792 791 789 787 786 785 785 785 785 784 783 783 782 782 781 781 781 780 779 779 778 778 778 778 778 777 777 777 777 777 777 777 777 777 777 777 777
805 805 805 804 804 803 803 803 803 803 802 802 802 802 802 802 802 802 802 802 801 801 801 801 801 801 801 801 800 800 799 799 799 799 800 799 799 799 798 797 797 798 798 797 796 796 795 794 792 791 791 789 788 786 784 784 783 783 782 782 781 781 781 780 780 779 779 778 778 777 777 777 776 776 776 776 776 776 775 775 775 775 775 775 775 775
804 804 804 803 803 803 802 802 802 802 802 802 802 802 802 801 801 801 801 801 801 801 800 800 800 800 800 799 799 798 798 798 798 798 798 798 798 797 797 796 796 796 796 796 796 795 795 794 792 791 789 788 787 786 785 784 783 782 781 781 780 780 779 779 779 778 778 777 777 776 776 776 775 775 775 775 774 774 774 773 773 773 773 773 773 773
803 803 803 803 802 802 802 802 802 801 801 801 801 801 801 801 800 800 800 800 799 799 799 799 798 798 798 798 797 797 797 797 796 796 796 796 796 796 796 795 794 794 794 794 794 794 794 793 792 791 789 787 786 785 784 783 782 781 780 779 779 778 778 778 778 777 777 776 776 775 775 774 774 774 774 773 773 773 772 771 771 771 771 771 770 770
803 802 802 802 802 802 801 801 801 801 801 801 800 800 800 800 800 799 799 798 798 798 798 797 797 797 796 796 796 796 796 795 795 795 795 794 794 794 794 793 793 793 793 793 793 793 792 792 791 790 789 788 786 785 783 782 782 781 780 779 777 777 777 777 777 776 776 775 775 774 774 773 773 773 772 772 772 771 771 770 770 769 769 769 769 768
802 802 801 801 801 801 801 801 800 800 800 800 800 799 799 799 799 798 798 798 797 797 797 796 796 796 795 795 795 795 794 794 794 793 793 793 793 793 792 792 792 792 792 792 791 791 791 791 790 789 788 787 786 785 783 782 781 781 781 779 777 776 775 775 775 775 775 774 774 773 773 772 772 771 771 771 770 770 769 769 768 767 767 767 767 766
801 801 801 801 801 801 800 800 800 800 799 799 799 799 798 798 798 797 797 797 797 796 796 796 795 795 794 794 794 794 793 793 792 792 792 792 792 791 791 791 791 791 791 791 790 790 790 789 789 788 787 787 786 784 782 781 781 780 780 779 778 776 774 774 774 774 774 773 773 772 772 771 771 770 770 769 768 768 767 767 766 766 766 765 765 764
801 800 800 800 800 800 799 799 799 799 799 798 798 798 798 797 797 797 796 796 796 796 796 795 795 794 794 793 793 792 792 792 792 791 791 791 791 791 791 790 790 790 790 790 789 788 788 788 787 787 786 786 785 784 782 781 779 779 779 779 778 777 775 772 772 772 772 772 771 771 771 770 769 769 768 767 766 766 766 765 765 764 764 763 763 762
799 799 799 799 799 799 799 798 798 798 798 798 797 797 797 797 797 796 796 796 796 795 795 795 794 793 793 792 792 791 791 791 791 791 791 790 790 790 790 789 789 789 789 788 788 787 787 786 786 786 785 785 784 783 781 780 779 778 778 777 777 777 775 773 771 771 771 770 770 769 769 769 768 767 766 766 765 764 764 763 762 762 761 761 761 760
798 798 798 798 798 798 798 798 798 797 797 797 797 797 796 796 796 796 796 795 795 795 794 794 793 793 792 792 791 791 791 790 790 790 790 790 789 789 789 788 788 788 788 787 787 786 786 785 785 784 784 784 783 782 781 779 778 777 776 776 776 775 774 772 772 771 770 769 768 767 767 767 767 766 765 764 763 762 762 761 760 760 759 759 759 758
798 797 797 797 797 797 797 797 797 797 796 796 796 796 796 796 796 795 795 795 794 794 793 793 793 792 792 791 791 790 790 789 789 789 789 788 788 788 788 787 787 787 786 786 786 785 785 784 783 783 783 782 781 780 779 778 777 776 775 775 774 773 772 771 771 770 769 768 767 766 766 766 766 765 763 762 761 760 759 759 758 758 757 756 756 755
797 796 796 796 796 796 796 796 796 796 796 796 796 795 795 795 795 795 794 794 794 793 793 792 792 792 791 791 790 789 789 788 788 787 787 787 787 787 786 786 786 786 785 785 784 784 783 782 782 782 781 781 779 778 777 776 776 775 774 773 773 772 771 770 769 768 768 767 766 765 765 765 764 763 762 761 759 758 757 756 756 755 755 755 754 753
796 796 796 796 796 796 796 796 796 795 795 795 795 795 794 794 794 794 793 793 793 793 792 792 791 791 790 790 789 789 788 787 787 786 786 786 786 786 785 785 785 785 784 784 783 782 781 781 781 780 780 779 778 776 775 774 774 773 773 772 771 771 769 768 767 766 766 765 764 764 764 763 763 761 760 759 757 755 754 754 754 753 753 753 752 751
795 795 795 795 795 795 795 795 795 795 794 794 794 794 793 793 793 793 793 792 792 792 791 791 791 790 789 788 788 787 787 786 786 785 785 785 785 784 784 784 783 783 783 782 781 781 780 779 778 778 777 777 776 774 773 772 771 771 771 770 770 769 767 766 765 764 764 763 762 762 762 762 761 760 759 758 755 753 752 751 750 750 750 750 750 749
794 794 794 794 794 793 793 794 794 794 793 793 793 793 792 792 792 792 791 791 791 791 790 790 790 789 788 787 786 786 786 785 785 784 784 784 783 783 783 782 782 782 781 781 780 779 778 777 776 775 774 774 773 772 771 770 769 769 769 768 768 767 766 764 763 762 762 762 761 761 760 760 759 759 758 757 754 752 750 748 748 747 748 748 747 746
792 792 792 792 792 792 792 792 792 792 792 792 792 792 791 791 791 791 791 790 790 790 789 789 788 788 787 786 786 785 785 784 784 783 783 782 782 782 782 781 781 781 780 779 779 778 777 775 774 772 771 771 771 771 769 768 767 767 767 766 765 765 764 763 761 761 760 760 759 759 758 758 757 757 756 755 753 751 748 746 745 745 745 745 745 744
Wind_Speed
8 8 7 6 7 7 7 7 7 9 11 10 8 7 8 10 11 12 13 14 14 15 16 18 19 19 19 19 18 18 18 19 19 19 18 16 14 12 11 10 9 8 7 7 7 7 9 10 10 10 10 10 11 11 11 12 12 12 12 13 13 13 13 13 13 13 13 13 13 13 13 13 12 12 11 11 11 11 11 11 11 11 11 11 11 12
7 7 6 6 6 6 7 7 7 9 11 12 10 8 9 10 11 13 14 15 15 16 17 17 18 18 18 18 18 18 19 18 17 16 14 12 12 11 9 8 7 6 5 6 6 7 9 9 10 10 10 10 10 11 11 11 11 12 12 12 12 12 12 13 13 13 13 12 12 12 12 12 12 11 11 11 11 11 11 11 11 11 12 12 12 12
6 5 5 5 5 5 6 7 7 8 9 12 13 12 12 12 13 14 15 15 16 16 16 15 15 15 15 15 16 15 15 13 12 10 9 9 9 8 7 6 5 4 5 6 7 8 9 9 9 9 10 10 11 11 11 12 12 12 12 12 12 12 12 12 13 12 12 12 12 12 12 12 12 12 12 12 12 12 12 12 12 13 13 13 13 13
5 4 5 4 4 5 6 7 7 8 8 10 12 13 14 14 15 15 16 16 16 16 15 14 14 13 13 13 12 10 8 7 7 7 7 6 6 5 4 4 5 5 6 7 7 8 8 9 9 10 11 11 12 12 12 12 12 12 13 13 12 12 12 13 12 12 12 12 12 12 12 12 12 12 12 13 13 13 13 13 13 13 13 13 13 13
5 4 5 4 4 5 6 6 7 7 8 8 9 11 12 13 14 15 16 16 16 15 14 14 13 12 10 7 6 4 4 4 5 4 4 4 4 5 5 6 6 6 6 7 7 8 8 9 10 11 11 12 12 12 13 13 13 13 13 13 13 13 13 13 12 12 12 12 12 12 11 11 11 11 11 12 12 12 13 13 13 13 13 13 13 13
4 4 5 5 5 5 6 6 6 7 7 7 8 8 9 10 11 12 13 13 13 13 13 12 10 7 5 4 3 3 2 2 3 3 4 5 6 6 6 6 6 6 6 6 7 8 9 9 10 11 11 11 11 12 12 12 12 12 12 13 13 12 12 12 12 12 11 11 10 9 9 9 10 10 10 11 11 12 12 12 12 13 13 13 13 13
4 4 5 5 5 5 5 6 6 6 6 6 6 6 6 7 7 8 9 10 10 10 9 7 6 4 4 4 3 2 1 1 2 3 4 5 6 6 6 6 6 6 6 7 8 9 9 10 11 11 10 10 10 11 11 11 10 10 11 11 11 10 9 9 9 9 8 8 9 9 9 9 10 10 11 11 11 12 12 12 12 12 12 13 13 13
3 4 4 4 4 4 4 5 5 5 4 4 4 4 4 3 3 4 4 5 5 5 4 4 3 3 3 3 2 2 2 2 2 3 4 6 8 8 8 9 9 8 8 8 9 10 10 11 11 11 10 10 10 10 10 10 10 10 10 10 9 9 8 8 8 8 9 9 9 10 10 11 11 11 12 12 12 12 12 12 13 12 12 12 13 13
2 2 3 3 3 3 4 4 4 3 3 3 3 3 2 2 1 1 1 2 2 2 2 3 3 3 3 3 3 4 4 4 3 4 5 7 9 10 10 11 11 10 10 10 10 11 11 11 11 11 11 11 11 11 11 11 12 12 11 11 10 10 10 9 9 9 10 10 10 11 11 12 12 12 13 13 13 13 13 13 13 13 12 12 12 12
2 2 2 3 3 3 4 4 4 3 2 2 2 1 1 1 1 1 1 2 2 2 2 3 3 4 4 5 5 5 5 4 4 5 6 8 9 9 10 11 11 11 11 12 12 13 13 13 13 13 12 12 12 12 12 13 13 13 13 13 12 11 11 11 11 11 11 11 12 12 13 13 14 14 14 14 14 14 13 13 13 13 12 12 12 12
3 3 3 3 3 3 3 4 3 3 2 2 1 1 1 1 2 3 3 3 3 3 3 4 5 5 5 5 5 5 5 5 5 6 7 8 9 9 10 11 11 12 13 13 14 15 15 15 15 14 14 13 13 14 14 14 15 15 15 14 14 14 13 13 13 13 14 14 14 15 15 15 15 15 14 14 14 14 13 13 13 12 12 12 12 12
4 4 4 4 4 4 3 3 3 3 3 3 3 3 3 3 3 4 6 6 6 6 6 6 6 5 5 5 5 5 5 6 7 8 8 9 9 10 11 12 12 13 14 15 16 16 17 17 16 16 15 15 16 16 16 17 17 17 17 17 17 17 17 17 17 17 17 17 17 16 16 15 15 14 14 14 13 13 13 13 13 12 12 12 12 13
4 4 4 4 4 4 4 4 4 4 4 4 5 5 5 5 5 6 7 7 8 7 7 7 6 5 5 5 5 6 6 7 8 9 9 10 11 12 12 13 14 15 16 17 18 18 17 17 16 16 17 17 18 18 19 19 19 19 19 19 19 19 19 19 18 18 18 17 16 15 14 14 14 13 13 13 13 13 13 13 13 13 13 13 13 13
5 4 4 4 4 4 4 5 5 5 5 6 6 6 7 7 7 7 7 8 7 7 7 6 6 5 5 5 6 7 7 8 9 10 10 11 12 13 14 15 16 17 18 20 20 19 17 16 15 16 16 17 18 18 18 19 19 19 19 18 18 18 18 17 17 16 16 15 14 14 13 13 13 13 13 13 13 13 13 13 13 13 13 13 13 13
6 6 6 6 6 5 5 5 5 5 5 5 5 6 6 6 6 6 6 6 6 5 5 5 5 5 5 6 6 7 8 8 9 10 10 11 13 14 16 17 19 20 21 21 21 19 16 13 13 14 15 15 16 16 17 17 17 16 16 16 15 15 14 14 14 14 13 13 13 13 13 13 13 13 13 13 13 13 13 13 13 13 13 13 13 13
7 7 7 7 6 6 6 6 5 5 5 4 4 4 4 4 4 3 3 3 3 3 3 3 4 5 6 6 6 7 7 8 9 10 11 13 14 16 17 19 21 22 22 21 19 16 12 11 11 12 13 13 14 14 14 14 13 13 13 12 12 12 12 12 12 12 12 12 12 13 13 12 12 12 13 12 13 13 13 13 13 13 13 13 13 14
7 7 7 6 6 6 6 6 6 5 5 5 4 4 3 3 3 3 2 2 2 2 2 3 3 4 4 4 5 5 6 7 9 11 13 16 17 18 19 19 20 21 21 18 15 11 9 8 8 9 10 11 11 11 11 11 11 11 11 11 11 11 12 12 12 12 12 12 13 13 13 13 13 13 13 13 13 13 13 13 13 13 14 14 14 14
7 7 6 6 6 6 6 6 6 6 6 6 5 5 4 3 3 3 3 3 3 3 3 3 4 4 4 4 4 5 7 9 12 14 17 18 19 19 19 18 19 19 18 15 11 8 6 6 7 7 8 9 9 10 10 10 11 11 11 11 12 12 12 12 12 13 13 13 13 13 13 13 13 13 13 13 13 13 13 13 14 14 14 14 15 15
6 6 6 6 5 5 5 6 6 6 6 6 6 6 5 5 5 5 5 5 5 5 5 5 4 4 5 5 6 7 9 11 13 16 17 18 19 18 17 17 17 17 16 13 9 7 6 6 7 7 8 9 9 10 11 11 11 12 12 12 13 13 13 13 13 13 13 13 13 13 13 13 13 13 13 13 13 14 14 14 14 15 15 15 15 15
5 5 5 5 5 5 5 5 6 6 6 7 7 6 6 6 6 6 6 7 7 7 7 7 6 6 6 7 7 9 10 13 15 16 16 17 18 17 16 15 15 15 14 12 10 8 8 8 8 8 9 9 10 10 11 12 12 13 13 13 13 13 13 13 13 13 13 14 14 14 14 14 14 14 14 14 14 14 14 15 15 15 15 15 15 16
4 4 5 5 5 5 5 5 6 7 7 8 7 7 7 7 7 7 8 8 8 8 8 7 7 7 7 8 9 11 13 14 14 14 15 16 16 16 15 14 14 14 14 13 11 10 10 10 10 10 10 11 11 12 12 13 13 14 14 14 14 14 14 14 14 14 14 14 14 14 14 14 14 14 14 14 14 14 15 15 15 15 15 16 16 16
4 3 4 4 4 4 4 5 6 6 7 7 7 7 8 8 9 9 9 9 9 9 9 9 9 10 10 11 12 13 13 13 13 14 14 14 15 15 14 13 13 14 15 14 13 12 12 12 12 12 12 12 13 13 13 14 14 14 14 14 14 13 13 13 13 13 13 13 13 13 14 14 14 14 14 14 14 14 15 15 15 15 16 16 16 17
3 3 3 3 3 3 3 4 5 6 7 7 7 8 9 9 10 10 11 11 11 11 11 12 12 13 13 13 13 13 12 12 13 13 12 11 12 13 13 13 14 15 16 16 15 14 14 14 14 13 13 13 13 13 13 13 13 13 13 13 12 12 12 12 12 12 12 12 12 12 13 13 13 13 13 14 14 14 15 15 15 16 16 17 17 18
3 3 3 2 2 2 3 4 5 7 7 7 8 8 9 10 11 11 11 12 12 12 13 13 14 14 13 13 12 11 11 11 11 11 10 9 11 12 13 13 14 16 16 16 15 16 17 17 16 15 13 12 11 10 11 11 11 11 11 10 10 9 9 9 10 10 10 10 10 11 11 12 12 13 13 14 14 15 15 15 16 16 17 18 18 19
2 1 1 1 2 3 3 4 6 7 8 9 9 10 10 11 11 12 12 12 13 13 13 14 14 13 13 12 11 11 10 10 10 10 9 9 11 12 12 13 14 15 16 16 16 18 19 19 18 14 11 8 7 7 8 9 8 7 6 6 6 6 6 7 7 8 8 9 9 10 11 11 12 13 13 14 15 15 16 16 16 17 17 18 18 18
1 1 2 2 3 4 5 5 6 7 9 10 11 11 12 13 13 13 14 14 14 14 13 13 13 12 12 12 11 11 10 9 10 10 10 10 11 12 12 12 13 14 15 17 18 20 20 20 17 12 7 5 5 5 6 6 4 3 3 3 3 4 5 6 6 7 8 9 10 11 12 12 13 14 15 15 15 16 16 16 16 17 17 17 18 18
3 3 4 5 6 7 8 9 10 10 11 11 12 12 13 14 14 14 14 14 14 13 13 12 11 11 12 11 11 10 10 9 9 10 10 11 11 11 12 11 12 13 16 18 19 20 19 18 14 10 5 3 3 4 5 5 5 4 3 3 4 5 6 7 8 9 10 11 12 13 14 14 15 15 15 16 16 16 16 16 16 16 17 17 18 19
7 7 7 8 9 10 11 12 13 13 13 13 13 12 12 13 14 14 15 14 14 13 12 12 11 10 10 10 10 10 10 9 9 10 11 10 10 10 11 11 12 13 15 18 19 19 16 13 11 8 5 3 3 4 4 5 6 6 6 6 7 8 9 10 11 12 13 14 15 16 16 16 16 15 15 15 15 15 15 16 16 16 17 17 18 19
9 9 10 10 11 12 12 13 14 14 15 15 14 13 13 13 15 16 16 15 13 12 12 12 12 11 11 11 12 11 11 10 10 10 9 8 8 9 10 10 11 12 14 16 17 16 12 10 8 6 4 3 4 4 4 5 6 7 9 10 11 12 13 14 15 16 17 17 17 17 16 16 15 15 15 15 15 15 15 15 16 16 17 17 18 19
9 10 11 11 12 13 14 15 16 17 17 18 17 16 14 13 14 15 16 15 14 12 12 13 13 12 11 11 10 10 9 8 7 6 6 6 7 8 9 10 11 12 12 13 12 10 10 10 8 4 3 3 4 5 6 8 9 11 12 13 15 16 16 17 17 17 17 17 16 16 15 15 14 14 15 15 15 15 15 15 15 16 17 18 19 20
10 11 12 12 13 14 15 16 18 19 19 19 18 16 14 12 12 12 13 13 13 13 13 13 13 13 11 9 6 4 5 6 5 4 5 6 7 9 10 10 10 11 11 10 8 6 6 8 6 4 6 8 11 13 14 15 15 15 14 14 14 14 14 14 14 14 14 14 14 14 14 14 15 15 15 15 16 16 16 15 15 16 17 18 19 20
12 12 13 14 14 15 17 18 19 20 20 19 17 14 11 10 9 9 10 11 12 13 13 14 14 13 13 11 8 6 7 7 7 7 9 8 9 10 10 9 9 10 10 9 8 5 3 6 9 11 14 16 18 19 19 18 17 15 14 13 12 11 10 10 10 11 12 13 14 14 14 15 15 15 15 15 15 15 15 15 15 15 16 17 18 19
13 14 14 15 16 17 18 20 20 20 19 16 13 10 8 7 7 7 7 8 9 10 11 12 12 12 12 12 12 12 11 10 9 9 10 10 10 9 10 9 10 11 11 11 10 9 8 10 14 17 18 18 18 17 18 17 17 16 15 14 14 13 12 12 12 14 15 15 15 15 14 14 13 13 13 13 13 14 14 14 14 14 15 16 18 19
15 16 16 17 18 19 20 20 20 18 16 12 9 6 5 5 5 5 5 5 6 6 7 7 8 8 9 10 11 12 12 11 9 8 8 9 9 10 11 11 11 12 12 12 12 12 12 14 15 16 17 18 17 16 15 16 15 15 15 15 15 15 15 15 16 16 16 16 16 15 13 12 12 11 11 12 12 12 13 13 13 13 14 15 16 17
17 17 18 18 19 19 19 18 17 14 10 7 5 5 5 4 4 4 4 4 4 4 5 6 7 8 8 9 10 11 11 11 9 9 10 11 12 13 13 12 12 12 11 12 12 12 12 14 15 16 16 17 18 16 15 14 15 15 15 16 17 17 18 18 17 17 16 15 15 14 13 12 12 12 12 12 12 12 12 12 13 13 14 14 15 16
19 19 19 18 18 17 16 14 12 9 6 5 5 5 5 5 5 6 6 5 5 5 6 7 8 9 10 11 12 13 13 13 13 13 13 14 15 14 14 13 13 12 12 12 12 12 13 14 16 16 16 16 16 16 16 15 15 16 17 18 18 19 19 18 17 16 15 15 15 14 14 14 14 15 14 14 13 13 13 13 13 14 14 15 16 17
18 17 17 16 14 13 12 10 8 6 4 4 5 6 6 6 6 7 8 8 8 8 8 9 9 10 11 12 13 14 15 16 16 16 16 16 16 16 15 15 15 14 13 13 14 14 14 15 16 16 16 15 14 15 16 17 17 17 17 18 19 19 19 17 15 14 14 15 15 16 16 17 17 17 16 15 15 14 15 14 15 15 15 16 17 17
15 14 13 12 11 10 9 7 6 5 4 5 6 6 7 7 8 8 9 10 11 11 12 12 12 13 13 14 15 16 17 18 18 18 17 18 18 18 18 17 17 17 15 15 15 15 14 14 14 13 14 15 15 16 17 17 18 18 19 19 19 18 17 16 14 14 14 15 16 17 18 18 17 17 17 17 17 17 17 17 17 17 17 18 18 18
12 12 11 10 9 9 8 7 6 5 5 6 6 7 7 8 9 9 10 11 13 14 15 15 16 16 17 18 18 19 20 20 20 20 19 19 18 18 18 18 17 17 16 16 15 15 15 14 13 13 13 14 16 17 17 17 17 18 19 19 18 17 15 14 14 14 15 16 18 18 18 17 17 17 17 18 18 19 19 20 20 19 19 19 20 20
11 10 10 9 9 8 8 8 7 7 6 6 7 7 7 8 9 10 11 12 12 13 14 14 14 15 15 16 16 17 17 17 17 17 17 16 15 15 15 16 16 16 15 15 15 15 15 15 15 15 15 15 16 17 17 17 17 17 17 17 16 16 16 16 16 17 17 17 17 17 17 17 17 17 18 19 19 20 20 20 20 20 19 20 20 21
10 10 10 9 9 9 8 8 8 7 7 7 7 7 8 8 9 10 11 11 10 10 10 10 10 11 11 11 11 11 11 11 11 11 11 11 11 11 12 13 14 14 14 14 14 14 15 15 15 16 16 16 16 17 18 18 18 17 17 16 17 18 19 19 17 16 16 15 15 16 17 18 19 19 20 20 20 20 20 20 20 20 20 20 20 21
11 11 10 10 10 9 9 8 7 7 7 7 7 8 8 9 9 10 10 10 9 9 9 9 10 11 12 13 12 11 10 10 9 9 9 9 9 9 10 11 12 12 13 14 15 15 15 15 15 16 16 16 16 17 18 19 18 18 17 17 19 20 20 18 16 15 14 16 17 17 18 19 20 20 20 20 20 20 19 19 20 20 20 20 20 20
12 11 11 10 10 9 9 8 7 7 7 7 8 8 8 9 9 9 9 9 10 9 9 10 11 12 14 14 14 12 11 9 9 8 8 8 8 8 9 10 10 11 12 14 15 15 15 15 16 16 16 16 16 17 18 19 19 19 18 18 18 18 16 17 18 18 18 18 19 19 19 19 19 19 19 19 19 19 19 20 20 20 19 19 19 20
12 12 11 11 10 9 8 7 7 7 8 8 8 8 8 8 7 8 8 10 10 10 10 11 12 13 13 13 13 12 11 10 9 8 8 8 8 8 9 10 10 10 11 13 14 15 15 16 16 16 16 16 17 18 19 19 20 20 19 18 17 17 17 19 20 21 21 20 20 20 19 19 19 19 20 20 20 20 19 19 19 20 20 20 20 21
13 12 11 10 10 9 8 7 7 8 8 8 9 9 8 8 8 8 9 10 10 10 11 11 12 12 11 11 12 12 12 11 10 10 9 9 9 9 9 9 9 10 11 12 14 15 16 16 16 16 17 17 17 18 19 19 20 20 20 18 18 18 19 20 21 20 20 20 21 21 21 20 20 21 21 20 20 19 18 18 19 20 20 20 20 21
12 11 10 9 9 9 8 8 8 8 9 9 9 8 8 7 8 9 10 10 11 12 12 12 11 11 10 11 12 12 12 12 12 12 11 10 10 9 9 9 9 10 11 13 14 15 17 17 18 17 17 17 18 19 20 19 19 20 20 19 18 18 20 20 20 20 20 20 21 22 22 21 20 20 20 20 20 20 19 19 19 20 20 20 21 21
11 10 9 9 9 9 9 9 9 9 9 10 9 8 8 8 9 10 10 11 11 12 12 11 11 11 11 12 13 13 13 13 13 13 12 12 11 11 10 9 10 10 12 13 14 15 17 18 19 19 19 18 18 19 20 19 19 19 19 19 19 19 19 20 20 20 20 20 21 21 21 20 20 20 20 20 21 21 21 20 19 19 19 20 21 21
11 11 10 10 10 10 10 10 10 10 10 11 10 9 9 9 9 10 11 11 12 12 11 11 11 11 12 13 13 13 13 14 14 14 13 13 13 12 12 11 11 11 12 13 14 15 17 18 19 20 20 20 19 19 20 20 19 19 19 19 19 19 19 20 20 20 20 20 21 21 21 20 19 19 20 21 22 23 22 22 21 20 20 20 21 22
11 11 11 11 11 11 11 11 11 11 12 12 11 11 11 10 10 10 11 12 12 13 12 12 11 12 13 13 14 14 14 14 14 14 14 13 13 13 13 12 12 12 13 14 15 16 17 18 19 19 20 21 22 21 22 21 20 20 19 18 18 19 20 20 21 20 20 20 21 21 21 20 20 20 20 21 22 24 24 24 23 22 21 21 21 21
11 11 12 13 13 13 13 13 12 13 13 13 13 13 12 12 11 11 11 12 13 12 12 12 12 12 13 14 14 14 14 14 14 14 14 13 13 12 12 13 13 13 14 14 14 15 15 16 17 18 18 19 21 22 23 22 21 20 19 19 19 19 19 20 21 21 21 21 21 21 21 22 22 21 20 20 22 24 25 25 24 23 21 20 20 20
11 12 13 13 14 14 14 14 14 14 14 14 13 13 12 12 12 12 12 12 12 12 12 12 13 13 13 14 14 14 14 14 14 14 14 14 13 13 13 13 13 13 12 12 11 11 11 11 12 14 16 16 17 19 21 22 22 21 19 19 19 19 19 21 22 22 22 22 23 23 23 23 22 21 20 19 21 23 24 24 24 23 21 20 19 20
Wind_Direction
323 320 317 315 310 301 287 275 254 234 221 216 212 213 218 219 221 224 227 229 233 237 239 241 242 242 243 244 246 250 256 263 269 272 271 264 252 242 240 244 250 257 264 273 281 284 284 282 281 282 283 284 284 283 282 280 278 276 274 272 271 270 270 270 270 269 269 268 267 266 264 264 265 266 267 269 270 271 271 271 272 273 272 271 272 274
316 314 309 309 306 297 286 279 266 246 230 223 223 230 236 237 238 240 242 244 247 250 252 253 252 252 252 255 259 263 267 270 270 267 260 248 238 234 238 245 253 263 274 282 285 283 281 280 281 283 285 287 287 287 286 286 283 280 277 274 272 271 271 270 268 266 266 265 265 266 268 271 273 274 275 275 274 274 275 275 275 275 274 273 272 272
313 308 305 305 299 287 279 278 274 265 250 238 236 242 250 254 255 257 258 259 261 262 262 262 261 262 265 269 272 273 272 267 259 248 236 230 228 233 243 256 270 283 289 288 283 279 278 281 284 286 288 288 288 288 288 287 284 282 281 278 275 274 272 270 268 268 268 268 269 271 273 274 274 274 274 275 274 274 275 275 274 273 272 271 271 270
318 311 305 301 288 274 271 273 274 272 267 256 249 248 254 259 263 266 267 270 271 271 271 270 271 274 276 277 275 269 259 245 230 220 217 223 235 254 278 294 302 303 294 285 279 277 278 282 286 288 289 288 288 287 286 284 282 280 279 278 277 275 274 271 270 270 270 269 268 267 267 268 269 269 269 269 269 269 270 270 269 269 268 268 267 267
316 310 303 292 274 264 269 273 274 275 276 273 266 261 261 263 266 269 272 274 275 276 276 277 279 279 275 268 255 237 216 204 203 210 225 247 268 285 294 299 298 293 285 278 276 278 282 287 290 291 291 290 288 286 283 281 280 279 278 276 274 272 271 268 266 264 263 262 262 262 262 264 264 265 266 265 265 265 264 264 264 264 263 263 264 264
308 305 302 290 274 267 275 280 284 288 290 288 284 279 274 271 271 272 274 275 276 277 278 279 277 270 251 223 198 180 171 186 208 233 256 272 278 279 278 278 275 272 272 271 275 282 288 293 296 296 295 293 290 287 283 282 281 279 275 273 270 268 267 263 260 258 258 259 261 264 266 267 268 269 271 269 269 269 268 266 265 264 262 262 262 261
301 305 304 295 287 285 289 295 302 307 308 305 301 296 290 285 282 279 277 276 275 275 274 270 259 236 206 190 182 180 193 242 244 248 256 259 258 255 254 252 252 257 264 272 281 288 294 297 299 300 298 295 292 287 283 284 283 279 273 270 268 267 265 260 257 258 259 261 263 265 268 268 270 272 273 273 273 274 274 272 271 268 266 264 263 262
296 307 310 305 302 306 312 320 326 330 330 329 324 319 315 306 297 286 277 271 267 262 256 242 219 200 191 197 215 242 269 281 275 258 248 244 243 243 244 246 250 256 265 276 285 292 297 298 299 297 294 290 286 282 277 277 277 274 271 269 267 265 264 262 260 259 260 262 264 266 267 268 269 271 271 272 272 272 272 272 271 270 268 266 264 263
306 315 326 331 333 339 346 353 359 3 4 6 359 346 337 334 320 283 258 241 232 225 217 208 206 209 221 242 259 270 277 278 269 255 248 247 247 248 251 254 258 263 271 280 288 293 296 296 294 290 286 282 278 275 272 269 267 265 265 265 265 263 261 260 260 261 262 262 265 267 269 268 269 270 270 270 270 270 269 269 268 267 267 265 264 263
0 355 356 359 2 5 9 16 21 27 36 39 37 17 340 312 292 265 245 230 223 222 228 238 251 259 266 270 274 278 280 273 256 245 247 251 255 258 262 265 269 274 280 285 290 292 292 291 287 283 280 276 274 271 268 265 262 260 259 259 261 261 261 260 262 263 265 265 266 268 269 269 269 270 269 269 269 268 267 266 265 265 265 264 264 264
33 21 15 14 13 15 19 22 25 26 28 23 17 355 307 284 280 277 275 274 270 268 269 276 283 287 285 281 280 280 278 264 250 247 252 257 262 267 271 274 277 281 285 290 293 294 293 289 284 279 275 272 269 266 264 261 259 258 257 257 258 260 261 262 264 265 266 267 268 269 270 270 270 270 269 268 267 266 265 264 263 263 263 263 263 264
42 31 23 16 11 10 11 12 11 5 355 344 329 316 305 295 291 289 287 289 291 293 293 295 296 294 288 278 272 270 265 253 248 249 255 261 266 270 273 276 279 283 287 291 294 296 295 290 282 275 270 267 264 263 262 261 261 262 262 262 263 264 265 266 267 268 269 270 270 271 271 270 269 268 267 266 264 263 262 262 261 261 261 261 262 263
41 34 25 17 10 6 0 354 346 338 330 322 313 307 306 305 302 299 296 297 298 297 298 297 294 289 280 267 258 253 250 249 251 256 261 265 270 273 276 279 282 285 288 292 295 297 295 289 279 271 265 263 262 262 263 265 266 267 268 269 269 269 269 270 270 271 271 271 271 270 269 268 266 265 264 263 262 261 260 260 259 260 260 261 262 263
29 23 17 14 11 6 358 348 336 326 319 313 308 305 305 306 306 304 302 300 298 298 297 292 285 278 269 256 249 249 250 253 258 263 268 273 277 281 283 286 288 290 294 297 299 299 296 287 275 266 262 260 261 263 265 267 269 270 271 271 271 271 271 271 271 271 271 270 269 267 266 264 263 262 261 260 260 259 259 259 259 259 260 261 262 264
17 12 10 11 13 12 5 357 348 339 331 324 317 313 310 310 311 311 309 304 301 301 298 290 280 271 262 251 248 251 256 260 265 270 274 279 283 288 291 293 295 297 299 302 303 301 295 283 271 263 259 259 260 262 264 266 268 269 270 269 270 270 270 270 269 269 268 266 264 263 262 261 260 259 259 259 259 259 259 259 260 261 262 263 264 266
19 17 17 19 22 23 17 13 11 7 360 354 350 343 336 334 335 337 337 326 316 311 305 296 280 266 256 250 248 251 258 267 273 277 280 284 287 292 296 298 300 302 304 306 305 302 293 277 265 259 257 257 258 259 260 261 263 264 266 266 267 267 267 267 266 265 264 262 261 260 260 259 259 259 259 259 259 259 260 261 262 262 263 265 266 268
29 29 31 34 36 34 29 27 27 27 25 23 23 23 23 22 18 15 16 6 345 330 322 314 299 285 269 249 244 252 265 279 285 288 289 291 293 296 299 302 304 306 307 308 307 302 290 272 260 255 254 254 254 254 255 257 260 262 264 265 266 266 265 264 263 262 261 260 260 260 260 259 259 259 259 259 259 259 260 261 262 264 265 266 268 269
35 36 37 42 43 38 31 31 30 28 25 26 24 22 20 19 14 8 4 355 346 340 335 327 310 299 294 276 272 280 285 292 296 298 299 300 299 300 303 305 307 308 309 309 309 303 288 272 263 259 256 254 252 250 251 255 259 263 264 265 264 264 264 263 262 261 260 260 260 260 259 260 260 260 260 260 260 261 261 262 263 265 266 267 268 269
31 29 33 37 34 26 19 17 17 16 15 13 9 5 2 357 352 347 342 338 335 334 332 325 311 295 288 289 293 297 300 301 303 305 305 304 303 304 306 309 309 309 309 310 311 307 295 283 276 271 266 262 258 255 254 255 257 261 262 263 263 263 263 262 262 261 260 260 260 259 259 259 260 260 260 260 261 261 262 263 264 266 267 267 268 269
7 4 6 9 7 4 1 360 357 356 356 352 349 346 344 341 338 336 333 332 331 330 328 322 312 302 296 297 301 304 307 308 309 309 306 303 303 304 307 310 310 309 309 310 312 311 304 296 289 282 277 272 269 266 264 261 260 259 260 261 262 262 261 261 261 261 260 260 260 259 259 259 259 260 260 261 261 262 263 264 265 266 267 267 268 269
331 333 334 333 337 344 350 352 351 348 345 340 336 332 329 329 327 325 323 324 324 323 323 317 311 306 304 302 303 306 309 312 312 311 307 303 302 304 309 313 313 311 310 310 312 312 308 302 296 290 286 284 282 279 275 269 264 261 260 259 259 259 258 258 259 259 260 260 260 259 260 260 260 260 261 261 262 263 264 265 265 266 266 267 268 269
315 320 322 320 322 331 341 347 349 347 342 335 332 330 327 325 322 320 317 315 315 314 313 310 308 307 307 306 306 307 310 311 312 311 308 303 301 304 311 316 315 312 310 311 313 314 310 304 299 296 295 294 291 286 279 272 266 263 260 258 257 257 257 257 258 259 261 260 260 260 260 261 261 261 262 262 263 264 264 265 266 266 267 268 269 270
321 322 321 316 318 324 331 337 342 344 340 334 329 325 320 316 313 310 308 307 305 304 304 305 305 304 304 305 306 307 309 309 310 309 307 300 300 306 313 316 314 310 309 312 315 316 311 306 304 303 303 300 294 286 278 271 266 263 262 259 258 258 258 259 260 261 262 263 263 262 262 262 262 262 262 263 263 264 265 266 267 269 270 270 271 272
315 307 303 305 314 320 322 330 340 342 337 330 322 314 309 306 303 301 300 299 299 299 299 300 300 300 300 301 302 303 304 305 306 306 303 295 297 304 311 313 312 309 309 313 316 315 311 309 309 309 308 303 294 283 274 268 265 264 262 260 259 260 262 264 265 265 265 265 265 264 264 264 264 264 264 264 265 266 268 269 270 271 272 272 272 273
303 298 289 303 320 324 322 325 334 337 332 327 318 310 305 302 299 297 295 295 295 296 296 297 297 297 297 299 300 300 300 300 300 299 295 292 294 300 306 309 309 308 309 313 315 313 312 312 314 316 314 306 292 279 269 263 263 264 264 265 266 267 268 268 267 266 265 265 265 266 266 267 267 268 268 269 269 270 271 272 273 273 274 274 274 274
321 316 318 324 323 319 317 315 317 320 320 319 316 312 307 303 299 296 292 290 290 291 292 292 291 291 294 297 298 299 299 299 298 294 290 289 293 298 302 306 306 307 309 312 313 312 314 316 320 324 324 313 289 271 261 251 246 248 262 270 272 269 267 265 264 263 263 265 266 267 269 270 270 270 271 272 272 273 273 274 274 275 275 275 275 274
303 304 306 305 300 299 300 301 302 304 306 307 308 307 304 300 296 291 287 284 284 284 283 283 284 288 291 293 294 295 298 299 296 291 288 287 288 292 297 302 306 309 311 312 313 314 316 320 324 328 328 312 281 262 251 235 224 219 230 246 254 256 257 258 259 261 262 264 266 268 269 271 272 273 273 274 274 275 275 275 275 275 276 276 275 274
289 290 291 291 291 292 294 296 299 302 305 306 306 303 296 289 285 281 277 277 277 277 274 272 275 280 285 287 290 294 297 295 289 285 286 284 283 286 294 301 307 311 314 315 316 317 319 322 325 325 313 288 265 254 245 235 230 231 237 242 245 249 252 255 259 262 265 267 269 271 272 273 275 275 276 275 276 276 275 275 275 276 276 275 274 272
289 290 291 292 294 296 298 301 303 307 311 315 316 311 298 285 277 273 273 275 275 274 271 269 270 272 277 283 289 293 294 290 284 281 283 281 280 285 295 303 309 314 319 320 320 321 321 321 322 317 296 268 253 246 242 244 249 253 256 254 253 256 259 262 265 268 270 271 273 274 274 275 275 276 277 276 276 276 276 276 276 276 275 273 272 271
295 296 298 299 301 303 305 307 308 310 314 317 319 315 306 291 279 273 272 273 273 273 272 271 270 270 274 282 289 293 293 289 285 283 286 283 284 290 298 303 308 314 321 325 326 323 318 316 317 314 296 277 266 263 264 273 278 277 274 270 267 267 267 268 270 271 271 272 273 273 274 274 275 275 277 277 276 276 276 276 276 275 274 273 272 271
299 300 301 302 302 304 305 306 308 310 313 315 316 313 307 297 286 278 274 272 271 271 271 271 271 270 270 274 280 288 288 294 296 298 299 293 289 291 298 302 305 311 320 328 330 325 317 315 316 317 312 305 300 297 296 297 298 296 292 287 282 278 275 274 274 274 274 275 276 277 277 277 276 276 276 275 275 274 275 275 274 273 273 273 273 272
300 300 300 300 301 302 303 304 306 308 311 312 312 309 303 295 288 282 277 273 271 270 270 270 270 269 266 264 261 263 273 284 293 298 299 293 288 290 295 298 303 307 313 317 315 309 304 303 304 306 308 308 307 307 308 311 313 315 314 311 306 301 296 294 292 291 289 289 289 287 286 284 281 279 277 275 274 273 272 273 273 272 272 273 273 273
301 300 299 299 299 299 300 302 304 308 310 311 308 302 294 288 284 281 277 273 271 270 270 270 270 270 268 264 264 265 270 276 285 293 297 292 290 292 296 299 302 304 306 306 301 292 283 287 295 301 304 306 306 308 311 313 316 319 320 318 316 313 313 310 307 305 303 300 299 296 294 291 288 285 281 278 275 273 271 270 269 269 271 272 273 274
299 298 297 298 298 298 299 302 305 308 309 307 300 288 278 273 272 272 270 269 269 270 273 274 275 276 275 273 271 270 271 273 278 284 286 291 294 297 297 298 299 300 302 301 298 293 287 287 292 299 303 304 305 305 306 308 311 313 314 313 312 312 313 313 311 309 306 304 302 301 299 298 296 293 289 285 282 278 274 270 267 266 269 270 272 274
301 300 300 301 301 302 303 305 307 309 307 297 278 263 256 257 261 264 267 267 268 269 271 272 274 276 276 276 276 274 273 273 273 271 272 281 289 293 294 293 293 296 298 297 296 295 293 292 293 297 301 303 303 303 303 305 308 309 309 308 308 309 311 312 312 310 309 307 304 304 304 305 304 302 299 296 292 288 283 278 273 270 269 269 270 271
306 306 307 307 308 309 310 312 313 312 301 276 255 246 246 251 259 264 267 269 269 267 266 266 267 268 269 271 273 274 274 274 272 271 272 275 281 285 288 286 287 289 291 291 291 292 293 294 295 296 297 299 301 302 303 305 306 307 306 306 307 309 311 313 313 313 311 308 307 307 309 309 308 307 305 303 300 296 291 286 281 277 273 270 268 267
309 310 312 314 315 317 319 320 319 313 293 265 251 246 247 253 260 265 266 267 268 267 265 264 264 265 267 268 270 272 274 275 275 275 275 276 277 279 280 280 281 282 281 282 284 287 290 292 294 295 294 293 295 299 303 306 306 306 304 306 307 309 311 314 316 315 312 309 307 308 309 308 308 307 307 306 304 301 296 292 287 282 279 275 271 269
311 314 317 319 321 323 325 324 320 310 291 274 264 259 257 259 264 268 269 269 269 269 268 266 265 264 265 266 267 270 273 276 278 278 278 278 278 278 277 277 277 277 275 274 277 281 284 287 290 293 293 292 292 294 299 303 305 305 305 307 308 308 310 313 315 313 309 306 305 305 305 305 306 306 306 305 304 301 297 294 291 288 286 283 279 275
314 317 320 322 324 324 323 321 316 307 295 286 279 273 270 270 272 274 274 274 273 272 271 271 270 269 268 267 268 269 271 274 276 278 278 278 277 276 276 275 275 275 274 273 273 274 275 277 279 284 289 292 294 296 298 300 302 304 307 309 309 308 308 310 309 306 303 302 302 302 303 304 304 303 302 301 299 297 295 294 292 291 291 290 288 284
315 317 320 321 321 321 319 316 312 306 299 291 286 284 284 285 285 284 283 284 284 283 283 283 282 281 279 277 276 275 276 276 277 278 278 278 277 276 275 274 275 276 277 276 274 272 270 270 272 276 280 286 291 294 297 298 299 303 307 309 308 306 306 306 305 302 301 301 301 301 302 302 301 299 298 297 295 294 293 292 292 292 292 290 288 287
313 315 316 317 317 316 314 312 310 306 300 295 293 293 296 297 296 297 299 303 306 308 310 310 307 305 304 304 301 297 293 291 289 287 285 283 280 278 276 275 276 278 279 278 276 272 269 268 271 274 277 280 285 289 291 293 296 299 303 302 301 301 303 303 302 302 302 302 301 301 301 300 299 298 297 295 294 292 292 292 292 291 290 288 285 282
309 311 312 312 313 312 310 309 307 306 304 302 301 302 301 301 302 304 307 312 316 320 320 317 315 313 311 310 311 313 310 308 306 303 297 292 287 284 280 277 277 278 279 278 276 272 270 269 270 272 275 279 283 286 288 290 293 295 296 296 299 302 304 303 302 303 302 301 300 299 298 297 297 297 297 295 294 292 291 290 288 287 285 282 280 278
304 306 308 309 309 308 306 305 305 304 305 305 305 306 306 305 306 309 311 312 314 318 320 318 315 312 309 310 313 315 314 314 313 309 304 300 296 290 284 281 279 278 277 276 274 272 272 271 270 270 272 276 279 281 284 288 290 292 292 292 296 299 300 300 301 302 301 299 298 297 296 296 296 296 295 294 292 290 288 286 285 283 279 276 275 276
300 302 303 304 305 304 303 301 301 302 302 303 305 307 309 309 311 311 309 309 311 315 315 315 314 312 310 309 311 314 316 317 316 313 311 307 302 295 289 285 281 278 275 274 272 272 273 272 271 271 273 275 276 277 280 283 286 287 288 289 289 288 287 291 296 298 299 297 296 295 295 296 296 296 295 293 291 289 288 286 284 282 279 277 276 276
296 297 299 300 301 302 301 301 300 300 301 302 305 308 309 310 309 307 306 308 310 310 311 312 312 311 307 305 307 311 314 315 315 314 313 311 307 303 297 292 288 283 277 274 272 272 271 271 272 274 276 275 274 273 275 278 281 283 285 285 284 282 281 285 289 292 293 294 293 294 296 298 299 297 295 293 291 290 287 285 283 282 281 279 278 277
291 292 292 295 297 299 300 301 300 299 298 300 301 303 305 306 305 305 305 308 310 310 309 311 310 304 298 299 303 306 308 309 310 311 312 312 310 308 303 298 293 288 283 279 277 276 274 272 272 274 277 276 274 273 272 273 276 279 281 283 283 283 283 284 285 286 287 288 290 293 296 298 298 295 293 292 291 290 288 285 283 282 282 281 280 278
287 286 285 287 290 293 295 296 296 295 295 295 295 296 296 298 300 302 304 305 307 309 308 307 302 296 291 293 297 300 302 303 304 305 307 310 310 309 306 302 297 293 290 287 285 283 281 279 278 277 275 274 274 274 274 272 272 274 277 280 281 282 282 282 283 283 284 285 287 290 294 295 294 292 290 292 292 291 290 287 284 282 281 281 280 279
286 284 283 283 284 286 288 289 291 291 292 292 291 290 289 290 295 300 302 300 301 302 301 299 295 291 289 289 291 294 296 297 297 299 300 302 304 304 304 302 300 297 294 292 289 287 284 283 280 277 272 267 267 270 273 273 272 272 273 276 277 278 278 280 281 283 282 283 285 287 289 289 287 287 289 291 292 292 290 288 286 284 282 281 280 279
284 283 283 282 282 282 283 284 286 287 288 288 289 289 288 285 286 289 292 293 295 296 294 291 289 288 287 287 289 291 292 292 293 294 295 296 297 298 297 297 296 295 292 290 287 285 283 281 278 273 267 262 260 263 268 270 270 271 271 272 272 274 276 278 280 282 282 283 284 285 286 284 282 282 283 285 288 289 289 289 288 286 284 282 280 278
282 280 278 278 279 280 280 280 281 283 284 285 287 289 290 287 284 281 282 287 290 291 288 285 283 282 282 284 287 289 290 291 291 292 292 294 295 294 293 292 292 290 289 287 285 284 283 281 279 275 270 263 259 258 260 264 267 270 270 269 269 270 272 276 278 280 281 282 283 284 284 283 281 280 279 279 282 286 288 288 287 286 285 283 281 279
288 282 277 275 275 275 276 276 277 278 279 281 283 285 286 287 285 283 283 285 285 284 281 279 276 275 276 279 283 286 287 288 288 288 289 291 292 292 290 289 288 286 284 284 285 285 285 285 285 284 280 270 261 257 257 259 263 267 268 268 268 269 269 272 276 279 281 282 283 284 284 283 281 279 276 275 278 282 285 286 287 287 286 285 283 281